Location: Aalen
(48.8330°N, 10.1000°E)
Time: 08:32:09
(UTC+01:00)

N. Korean satellite - Pass Details

Date: 06 December 2022
Orbit: 407 x 442 km, 97.3° (Epoch: 04 February)

Event Time Altitude Azimuth Distance (km) Brightness Sun altitude
Rises 04:46:16 0° 28° (NNE) 2,514 10.5 -30.4°
Reaches altitude 10° 04:48:53 10° 49° (NE) 1,624 9.8 -30.0°
Maximum altitude 04:51:15 17° 92° (E) 1,240 9.4 -29.6°
Drops below altitude 10° 04:53:34 10° 134° (SE) 1,596 9.7 -29.2°
Sets 04:56:07 0° 156° (SSE) 2,451 10.5 -28.8°
